TELKOM 3S (41944 NORAD) Tracking and Keplerian Element Data

This shows tracking and keplerian element data for the satellite.

Feedback or suggestion? Click here.




ElementValue
Catalog41944
NameTELKOM 3S
Epoch Orbit514
Epoch Day198.85111289
Epoch Year2018
RAAN65.4729
Inclination0.0169
Eccentricity0.000216
Argument of Perigee43.7991
Mean Anonmoly250.733
Mean Motion1.00270932
Decay Rate-3.83E-06
L11 41944U 17007A 18198.85111289 -.00000383 00000-0 00000-0 0 9994
L22 41944 0.0169 65.4729 0002160 43.7991 250.7330 1.00270932 5149

Live tracking and technical data element details for TELKOM 3S (NORAD 41944). TELKOM 3S can be tracked NOW for your location showing map with azimuth and elevation plus other details from your city location.

Track the satellite on the map from your city or location and see movement details for azimuth, elevation, latitude, longitude, range, height, and movement on the map or in text.







IsCatalogInMostPopularTable: catalog: 41944, numindb: 89
Update: records affected: 1



GetName: 41944 TELKOM 3S

Hit Count: updated at: Thu, 19 Jul 2018 04:00:23 GMT